Location: Antioch Baptist Church
(32.6696°N, 85.7327°W)
Time: 21:15:33
(UTC+00:00)

Cosmos 540 Rocket - Pass Details

Date: 14 July 2020
Orbit: 740 x 754 km, 74.1° (Epoch: 13 August)

Event Time Altitude Azimuth Distance (km) Brightness Sun altitude
Rises 09:33:48 0° 344° (NNW) 3,194 7.0 -13.7°
Reaches altitude 10° 09:36:09 10° 346° (NNW) 2,269 6.2 -13.3°
Maximum altitude 09:41:18 80° 73° (ENE) 765 3.6 -12.4°
Drops below altitude 10° 09:46:27 10° 161° (SSE) 2,264 5.8 -11.5°
Sets 09:48:48 0° 162° (SSE) 3,186 6.5 -11.1°
